OpenBCM V2.0.2 (Linux)

Packet Radio Mailbox

IZ3LSV

[San Dona' di P. JN]

 Login: GUEST





  
LU9DCE > KEPS     14.07.18 19:28l 252 Lines 12467 Bytes #999 (0) @ WW
BID : 10102_LU9DCE
Read: GUEST
Subj: SAT TLE 07 07 2018
Path: IZ3LSV<IW8PGT<IR2UBX<IW2OHX<UA6ADV<CX2SA<DB0ZAV<LU4ECL<LU9DCE
Sent: 180707/0714Z @:LU9DCE.TOR.BA.ARG.SOAM #:10102 BPQ6.0.16


            __    _  _  ___  ____   ___  ____    ____  ____  ____
           (  )  / )( \/ _ \(    \ / __)(  __)  (  _ \(  _ \/ ___)
           / (_/\) \/ (\__  )) D (( (__  ) _)    ) _ ( ) _ (\___ \
           \____/\____/(___/(____/ \___)(____)  (____/(____/(____/
               ESTACION DE PACKET RADIO - BUENOS AIRES (GF05OM)
                   BOLETINES INFORMATIVOS PROGRAMADOS (BIP)
                    LU9DCE@GMX.COM - RF 145070 @ 1200 BAUD
                   AXIP NETROM -- LU9DCE.DYNU.COM UDP 10093

+------------------------------------------------------------------------------+
OSCAR 7
1  7530U 74089B   18187.88410480 -.00000028 +00000-0 +10400-3 0  9990
2  7530 101.6881 154.9101 0011751 298.8761 116.4284 12.53633303996839
OSCAR 11 (UoSAT 2)
1 14781U 84021B   18187.70211485 +.00000020 +00000-0 +86815-5 0  9994
2 14781 097.6475 223.0846 0009101 028.6626 331.5087 14.83015529826334
OSCAR 19 (LUSAT)
1 20442U 90005G   18187.90422005 -.00000026 +00000-0 +66867-5 0  9990
2 20442 098.6106 126.2754 0012963 091.7994 268.4675 14.32899288486652
EYESAT A
1 22825U 93061C   18187.88168543 -.00000006 +00000-0 +15552-4 0  9995
2 22825 098.8637 164.3554 0007374 292.8333 067.2069 14.30033961292116
ITAMSAT
1 22826U 93061D   18187.89394515 -.00000005  00000-0  16034-4 0  9992
2 22826  98.8577 164.4029 0007812 280.6799  79.3503 14.30365634292578
RADIO ROSTO
1 23439U 94085A   18187.76318993 -.00000030 +00000-0 +36566-3 0  9991
2 23439 064.8190 317.1732 0156722 178.5428 291.1177 11.27567490968770
JAS 2
1 24278U 96046B   18187.60379006 -.00000012 +00000-0 +21436-4 0  9998
2 24278 098.5167 023.6825 0351312 060.6399 302.9347 13.53084504080611
TECHSAT 1B
1 25397U 98043D   18187.92131576 -.00000019 +00000-0 +10868-4 0  9997
2 25397 098.6505 128.0342 0001161 020.4587 339.6638 14.23647963038314
ISS (ZARYA)
1 25544U 98067A   18187.77413594 +.00000966 +00000-0 +21911-4 0  9994
2 25544 051.6418 281.0774 0003327 273.9312 228.3603 15.54013230121561
PCSAT
1 26931U 01043C   18187.44195576 -.00000044 +00000-0 +15067-4 0  9997
2 26931 067.0495 179.7257 0007959 271.8093 088.2096 14.30509915875305
SAUDISAT 1C
1 27607U 02058C   18187.93580527 -.00000045 +00000-0 +14430-4 0  9997
2 27607 064.5554 029.6692 0067298 324.1090 035.5500 14.75462529835748
CUTE-1
1 27844U 03031E   18187.93976976 +.00000033 +00000-0 +34524-4 0  9991
2 27844 098.6859 196.3043 0008966 320.7186 039.3340 14.22121296778963
CUBESAT XI 4
1 27848U 03031J   18187.90460658 +.00000027 +00000-0 +32204-4 0  9993
2 27848 098.6946 196.6742 0009066 331.9957 028.0731 14.21724528778836
MOZHAYETS 4
1 27939U 03042A   18188.23940889  .00000093  00000-0  25256-4 0  9994
2 27939  97.9933 326.8583 0014380  86.0655   9.0918 14.66698680789750
CUBESAT XI 5
1 28895U 05043F   18187.89783105 +.00000085 +00000-0 +25134-4 0  9992
2 28895 097.9117 338.5573 0017025 012.2552 347.9061 14.63559668676523
CUTE-1.7+APD II
1 32785U 08021C   18187.81625276 +.00000134 +00000-0 +20110-4 0  9994
2 32785 097.5464 199.0569 0012453 340.3116 019.7619 14.88141006552024
DELFI C3
1 32789U 08021G   18187.71114206 +.00000966 +00000-0 +70124-4 0  9996
2 32789 097.5102 242.0255 0011313 225.7982 134.2317 15.06132468554628
SEEDS
1 32791U 08021J   18187.73860728 +.00000241 +00000-0 +30020-4 0  9995
2 32791 097.5351 204.3858 0012286 318.9608 041.0685 14.90579651552348
YUBELEINY
1 32953U 08025A   18187.91895056 +.00000040 +00000-0 +21508-3 0  9998
2 32953 082.5029 000.4049 0019421 164.4161 195.7521 12.43083944459227
PRISM (HITOMI)
1 33493U 09002B   18187.69560465  .00000960  00000-0  90525-4 0  9999
2 33493  98.1294  90.5351 0013874 251.7693 108.2000 14.96262298513263
KKS-1 (KISEKI)
1 33499U 09002H   18187.91502253 +.00000070 +00000-0 +18488-4 0  9991
2 33499 098.3568 010.3220 0008238 224.3857 135.6691 14.75341915507664
SWISSCUBE
1 35932U 09051B   18187.95115936 +.00000079 +00000-0 +28944-4 0  9998
2 35932 098.5479 339.5889 0008453 142.5352 217.6436 14.56172841466276
BEESAT
1 35933U 09051C   18187.90827505 +.00000069 +00000-0 +26603-4 0  9995
2 35933 098.5519 341.1053 0006414 152.6565 207.4971 14.56275337466339
ITUPSAT 1
1 35935U 09051E   18187.90545300 +.00000061 +00000-0 +25176-4 0  9993
2 35935 098.5631 341.3548 0008790 151.1146 209.0538 14.55451219466167
XIWANG-1 (HOPE-1)
1 36122U 09072B   18187.92581586 -.00000023 +00000-0 +50391-4 0  9999
2 36122 100.0744 201.6370 0008234 069.2261 290.9734 13.16345141411148
TISAT 1
1 36799U 10035E   18187.91603642 +.00000320 +00000-0 +38549-4 0  9997
2 36799 098.1092 324.6573 0013339 139.2728 220.9489 14.90826538432892
JUGNU
1 37839U 11058B   18187.49270017  .00000301  00000-0  18537-4 0  9992
2 37839  19.9614 280.1895 0019080  99.2812 356.2457 14.12622747348108
SRMSAT
1 37841U 11058D   18187.45739319 +.00000293 +00000-0 +16190-4 0  9999
2 37841 019.9733 330.0025 0011904 342.7440 056.7222 14.10609318347606
M-CUBED/EXP-1 PRIME
1 37855U 11061F   18187.89263475 +.00000574 +00000-0 +37395-4 0  9993
2 37855 101.7149 260.5039 0176292 023.9690 336.9604 15.04516077364149
HORYU 2
1 38340U 12025D   18187.94301420 +.00000127 +00000-0 +26676-4 0  9997
2 38340 098.3649 210.3408 0012385 142.9724 217.2341 14.75571096319610
STRAND 1
1 39090U 13009E   18187.56314357  .00000010  00000-0  18897-4 0  9991
2 39090  98.5202  33.6940 0008139 236.2471 123.7939 14.35031544280600
SOMP
1 39134U 13015E   18187.94852092 +.00000648 +00000-0 +40089-4 0  9997
2 39134 064.8644 062.9835 0010230 216.1102 143.9335 15.19232186287526
BEESAT 3
1 39135U 13015F   18187.93701032 +.00000530 +00000-0 +36843-4 0  9997
2 39135 064.8700 076.6331 0018993 237.8039 122.1246 15.16731765287250
BEESAT 2
1 39136U 13015G   18187.91368009 +.00000421 +00000-0 +31756-4 0  9996
2 39136 064.8705 079.5490 0021010 234.1141 125.8034 15.16196663287192
CUBEBUG 1
1 39153U 13018D   18187.90978169 +.00000101 +00000-0 +20187-4 0  9992
2 39153 097.9797 283.0438 0015748 239.6674 120.2981 14.80409801280425
ZACUBE
1 39417U 13066B   18187.63862576  .00000089  00000-0  17588-4 0  9998
2 39417  97.5857 215.2377 0060750  91.5135 269.3038 14.80949568249679
TRITON 1
1 39427U 13066M   18187.93519201 +.00000148 +00000-0 +31714-4 0  9999
2 39427 097.6420 182.5557 0113571 195.3501 164.4250 14.67682833247283
GOMX 1
1 39430U 13066Q   18187.91641330 +.00000133 +00000-0 +33561-4 0  9996
2 39430 097.6986 163.3710 0149956 268.3138 090.0882 14.59094509245848
HUMSAT D
1 39433U 13066T   18187.69176739 +.00000369 +00000-0 +41629-4 0  9995
2 39433 097.6022 243.3847 0031371 020.5838 339.6638 14.91890430250152
CUBEBUG 2
1 39440U 13066AA  18187.94033839 +.00000132 +00000-0 +25323-4 0  9995
2 39440 097.6003 202.0031 0081710 130.6704 230.1646 14.75687517247638
FUNCUBE 1
1 39444U 13066AE  18187.96195464 +.00000167 +00000-0 +26920-4 0  9996
2 39444 097.5865 217.0940 0059857 085.9254 274.8798 14.81733802247999
UWE-3
1 39446U 13066AG  18187.59079383 +.00000136 +00000-0 +24662-4 0  9995
2 39446 097.5916 208.0297 0071723 112.0415 248.8435 14.78221943247397
SPROUT
1 39770U 14029E   18187.84047640  .00000348  00000-0  45118-4 0  9998
2 39770  97.8773 288.7241 0009910 137.8834 222.3140 14.86884289223283
UNISAT 6
1 40012U 14033C   18187.83501965 +.00000121 +00000-0 +25516-4 0  9997
2 40012 097.8058 063.3769 0059432 134.9925 225.6122 14.73833935217596
DUCHIFAT 1
1 40021U 14033M   18187.73077676 +.00000297 +00000-0 +36409-4 0  9990
2 40021 097.9155 106.4853 0014331 111.2650 249.0099 14.90331126219869
QB50P1
1 40025U 14033R   18187.77357274  .00000186  00000-0  25884-4 0  9995
2 40025  97.9047 103.1321 0013753 117.3159 242.9460 14.88732713219706
CHUBUSAT 1
1 40300U 14070C   18187.82833399  .00000303  00000-0  16422-4 0  9994
2 40300  97.3596 265.0999 0019714 190.4726 309.7577 15.21607041203267
NUDT-PHONESAT
1 40900U 15049B   18187.90530766 +.00001334 +00000-0 +62462-4 0  9998
2 40900 097.4404 195.9296 0012360 327.2243 032.8224 15.21412496154915
ZDPS 2A
1 40901U 15049C   18188.12836853  .00000576  00000-0  32372-4 0  9994
2 40901  97.4582 194.1627 0012879 335.3511  24.7105 15.17132542154683
ZDPS 2B
1 40902U 15049D   18187.90688849 +.00000536 +00000-0 +30516-4 0  9994
2 40902 097.4483 191.9356 0012904 333.0616 026.9946 15.16926223154636
XW-2A
1 40903U 15049E   18188.18269580  .00001271  00000-0  33289-4 0  9990
2 40903  97.3825 223.2359 0012965 324.2571  35.7806 15.40584137156880
KAITUO 1A
1 40904U 15049F   18188.14993507  .00000141  00000-0  11059-4 0  9996
2 40904  97.4585 191.3613 0014285 335.8536  80.5850 15.15044959154520
OBJECT G
1 40905U 15049G   18187.91114630 +.00000247 +00000-0 +17180-4 0  9991
2 40905 097.4586 189.1698 0014857 328.0086 032.0242 15.13996283154407
XW-2C
1 40906U 15049H   18187.93195055 +.00000405 +00000-0 +25041-4 0  9995
2 40906 097.4596 191.0613 0014049 327.3030 032.7331 15.15225483154485
XW-2D
1 40907U 15049J   18187.94845261 +.00000428 +00000-0 +26154-4 0  9999
2 40907 097.4570 190.7722 0013355 325.1878 034.8480 15.15379076154497
LILACSAT 2
1 40908U 15049K   18187.91296609 +.00000197 +00000-0 +14620-4 0  9991
2 40908 097.4683 190.0705 0015058 326.6651 033.3631 15.13532631154357
XW-2F
1 40910U 15049M   18187.94738053 +.00000651 +00000-0 +36714-4 0  9994
2 40910 097.4570 192.1220 0013924 320.1353 039.8856 15.16588179154573
XW-2B
1 40911U 15049N   18187.90066024 +.00000411 +00000-0 +25292-4 0  9996
2 40911 097.4605 191.2704 0013280 326.0025 034.0355 15.15322322154381
KAITUO 1B
1 40912U 15049P   18187.91838576 +.00000606 +00000-0 +32369-4 0  9996
2 40912 097.4501 194.9663 0013876 306.7527 140.5956 15.18811248154668
TIANWANG 1C (TW-1C)
1 40926U 15051B   18188.09299069  .00005144  00000-0  95453-4 0  9997
2 40926  97.1814 230.3450 0009402 192.6691 219.4970 15.49353894156396
